Location: Caracas
(10.5033°N, 66.8422°W)
Time: 02:37:05
(UTC-04:00)

Tiangong 2 - Pass Details

Date: 14 November 2017
Orbit: 386 x 391 km, 42.8° (Epoch: 18 November)

Event Time Altitude Azimuth Distance (km) Brightness Sun altitude
Rises 19:02:49 0° 335° (NNW) 2,254 5.1 -15.3°
Reaches altitude 10° 19:05:20 10° 356° (N) 1,400 3.8 -15.9°
Enters shadow 19:05:54 13° 5° (N) 1,253 3.4 -16.0°
